Miscellaneous Local Product
Issued by NWS North Platte, NE

Home | Current Version | Previous Version | Text Only | Print | Product List | Glossary On
Versions: 1 2 3 4 5 6 7 8 9 10 11 12 13 14 15 16 17 18 19 20 21 22 23 24 25 26 27 28 29 30 31 32 33 34 35 36 37 38 39 40 41 42 43 44 45 46 47 48 49 50
000
AXUS43 KLBF 190010
MISLBF


WESTERN AND NORTH CENTRAL NEBRASKA HOURLY WEATHER ROUNDUP
NATIONAL WEATHER SERVICE NORTH PLATTE NE
700 PM CDT SAT APR 18 2015

***STATIONS NOT REPORTING VARIABLES SUCH AS SKY/WEATHER OR
PRESSURE ARE PROVIDED BY THE NEBRASKA DEPARTMENT OF
ROADS...RAWS...AND APRS NETWORKS...AND ARE NOT UNDER
NATIONAL WEATHER SERVICE QUALITY CONTROL***

...OBSERVATIONS IN AND NEAR THE EASTERN PANHANDLE OF NEBRASKA...

CITY           SKY/WX    TMP DP  RH WIND       PRES   REMARKS
PINE RIDGE     CLOUDY    51  43  74 NW12      29.90R
CHADRON        PTSUNNY   52  45  77 NW7       29.91S
ALLIANCE       CLOUDY    55  46  71 N15       29.86R
SIDNEY         LGT RAIN  46  39  76 N12       29.90R
WHITECLAY        N/A     48  42  79 NW10        N/A
BIG SPRINGS      N/A     60  44  56 SW14        N/A
$$

...OBSERVATIONS IN NORTH CENTRAL NEBRASKA...

CITY           SKY/WX    TMP DP  RH WIND       PRES   REMARKS
VALENTINE      PTSUNNY   63  48  58 N16       29.80F
THEDFORD       MOSUNNY   66  43  43 CALM      29.79S
AINSWORTH      MOSUNNY   62  51  68 NE8       29.81S
O`NEILL        CLOUDY    62  57  83 NE7       29.80F
ORD            PTSUNNY   66  47  50 E3        29.76S
BROKEN BOW     PTSUNNY   64  55  72 E12       29.76S
BROWNLEE         N/A     67  44  42 N12         N/A
SPRINGVIEW       N/A     65  51  60 CALM        N/A
BREWSTER         N/A     71  53  52 E12         N/A
ROSE             N/A     66  51  58 N9          N/A
NEWPORT          N/A     62  56  80 NE9         N/A
SARGENT          N/A     64  53  67 CALM        N/A
COMSTOCK         N/A     67  58  72 E6          N/A
EWING            N/A     63  58  83 E7          N/A
$$

...OBSERVATIONS IN SOUTHWEST NEBRASKA AND FAR NORTHEAST COLORADO...

CITY           SKY/WX    TMP DP  RH WIND       PRES   REMARKS
WRAY           MOCLDY    49  44  82 NW16      29.81F
HOLYOKE        DRIZZLE   52  45  76 NW10      29.83F
IMPERIAL       PTSUNNY   56  43  61 W12       29.79F
OGALLALA       CLOUDY    55  44  65 SW22G28   29.84R
NORTH PLATTE   PTSUNNY   63  47  55 E8        29.76R
MCCOOK         TSTM      62  44  51 SW20      29.75R
LEXINGTON      CLOUDY    66  53  63 E5        29.75S
PAXTON           N/A     65  47  52 E8          N/A
SUTHERLAND       N/A     57  47  71 CALM        N/A
BRADY            N/A     63  51  66 CALM        N/A
GOTHENBURG       N/A     67  46  47 E5          N/A
CALLAWAY         N/A     68  49  49 E5          N/A
$$

...NORTH PLATTE AREA...

CITY           SKY/WX    TMP DP  RH WIND       PRES   REMARKS
AIRPORT        PTSUNNY   63  47  55 E8        29.76R
DOWNTOWN         N/A     66  46  48 NE5         N/A
$$

...SOME WEATHER OBSERVATIONS FROM AROUND THE REGION...

CITY           SKY/WX    TMP DP  RH WIND       PRES   REMARKS
DENVER         PTSUNNY   48  36  63 N15       29.88R
LARAMIE        CLOUDY    33  31  92 N12       29.97R WCI  24
CHEYENNE       PTSUNNY   40  33  76 NW10      29.93R WCI  33
SCOTTSBLUFF    CLOUDY    59  32  36 VRB3      29.87R
RAPID CITY     CLOUDY    46  44  93 NW10      29.91F
PIERRE         CLOUDY    51  49  92 N9        29.85F
WINNER         FAIR      60  54  80 N10       29.82F
SIOUX FALLS    CLOUDY    58  55  90 E12       29.83F
OMAHA          CLOUDY    62  57  83 SE5       29.82R
GRAND ISLAND   PTSUNNY   66  55  67 E9        29.78S
KANSAS CITY    CLOUDY    63  59  87 S6        29.84S
WICHITA        PTSUNNY   70  56  61 SE10      29.76R
HAYS           CLOUDY    57  45  62 E15       29.76S
LIBERAL        PTSUNNY   63  37  39 SW8       29.78F
GOODLAND       MOSUNNY   56  44  64 NW18      29.77R
$$



USA.gov is the U.S. government's official web portal to all federal, state and local government web resources and services.